Weather History for Charlottetown, PE

Change the Weather History Date:

Wednesday, April 30, 2014

  Actual Average Record
Temperature  
Mean Temperature 38 °F -  
Max Temperature 45 °F 57 °F 75 °F (2004)
Min Temperature 30 °F 39 °F 26 °F (2001)
Degree Days  
Heating Degree Days 28    
Moisture  
Dew Point 26 °F    
Average Humidity 68    
Maximum Humidity 93    
Minimum Humidity 31    
Precipitation  
Precipitation 0.00 in 0.13 in - ()
Sea Level Pressure  
Sea Level Pressure 30.52 in    
Wind  
Wind Speed 7 mph ()    
Max Wind Speed 12 mph    
Max Gust Speed -    
Visibility 14.0 miles    
Events      
Averages and records for this station are not official NWS values.
T = Trace of Precipitation, MM = Missing Value Source: Averaged Metar Reports

Daily Weather History Graph

Daily Weather History Graph

Search for Another Location

Airport:

Trip Planner

Search our weather history database for the weather conditions in past years. The results will help you decide how hot, cold, wet, or windy it might be!

Date:

Astronomy

Apr. 30, 2014 Rise Set
Actual Time 6:00 AM ADT 8:19 PM ADT
Civil Twilight 5:27 AM ADT 8:53 PM ADT
Nautical Twilight 4:45 AM ADT 9:34 PM ADT
Astronomical Twilight 3:59 AM ADT 10:21 PM ADT
Moon 6:56 AM ADT (4/30) 9:57 PM ADT (4/30)
Length of Visible Light 15h 26m
Length of Day
14h 19m
New Moon, 2% of the Moon is Illuminated
Apr 30
New Moon
May 7
First Quarter
May 14
Full
May 21
Last Quarter
May 28
New

Hourly Weather History & Observations

Time (ADT) Temp. Windchill Dew Point Humidity Pressure Visibility Wind Dir Wind Speed Gust Speed Precip Events Conditions
12:00 AM 30.2 °F 20.8 °F 28.4 °F 93% 30.61 in 15.0 mi NNE 11.5 mph - N/A   Overcast
1:00 AM 30.2 °F 20.8 °F 28.4 °F 93% 30.61 in 15.0 mi North 11.5 mph - N/A   Overcast
2:00 AM 30.2 °F 23.4 °F 28.4 °F 93% 30.60 in 15.0 mi NNE 6.9 mph - N/A   Mostly Cloudy
3:00 AM 30 °F - 28 °F 90% 30.61 in 10 mi North 6.9 mph - -   Mostly Cloudy
3:00 AM 30.2 °F 22.6 °F 28.4 °F 93% 30.60 in 10.0 mi North 8.1 mph - N/A   Mostly Cloudy
4:00 AM 30.2 °F 22.6 °F 28.4 °F 93% 30.60 in 10.0 mi North 8.1 mph - N/A   Overcast
5:00 AM 30.2 °F 21.3 °F 28.4 °F 93% 30.59 in 10.0 mi North 10.4 mph - N/A   Overcast
6:00 AM 30.2 °F 22.6 °F 28.4 °F 93% 30.60 in 12.0 mi North 8.1 mph - N/A   Overcast
7:00 AM 30.2 °F 21.9 °F 28.4 °F 93% 30.61 in 15.0 mi NNE 9.2 mph - N/A   Overcast
8:00 AM 32.0 °F 23.0 °F 26.6 °F 80% 30.61 in 12.0 mi NNE 11.5 mph - N/A   Mostly Cloudy
9:00 AM 34 °F - 28 °F 69% 30.61 in 12 mi NE 9.2 mph - -   Mostly Cloudy
9:00 AM 33.8 °F 27.0 °F 28.4 °F 81% 30.61 in 12.0 mi NE 8.1 mph - N/A   Mostly Cloudy
9:41 AM 35.6 °F 29.2 °F 28.4 °F 75% 30.60 in 15.0 mi NNE 8.1 mph - N/A   Mostly Cloudy
10:00 AM 35.6 °F 28.6 °F 28.4 °F 75% 30.60 in 15.0 mi NNE 9.2 mph - N/A   Mostly Cloudy
11:00 AM 35.6 °F 29.9 °F 26.6 °F 70% - 15.0 mi North 6.9 mph - N/A   Mostly Cloudy
12:00 PM 39.2 °F 34.2 °F 28.4 °F 65% 30.56 in 15.0 mi North 6.9 mph - N/A   Mostly Cloudy
1:00 PM 39.2 °F 33.6 °F 26.6 °F 61% 30.55 in 15.0 mi North 8.1 mph - N/A   Mostly Cloudy
1:35 PM 39.2 °F 34.2 °F 24.8 °F 56% 30.53 in 15.0 mi North 6.9 mph - N/A   Mostly Cloudy
2:00 PM 41.0 °F 35.2 °F 23.0 °F 49% 30.53 in 15.0 mi NNE 9.2 mph - N/A   Mostly Cloudy
3:00 PM 41 °F - 21 °F 31% 30.51 in 15 mi NNE 6.9 mph - -   Clear
3:00 PM 41.0 °F 35.8 °F 21.2 °F 45% 30.51 in 15.0 mi North 8.1 mph - N/A   Mostly Cloudy
4:00 PM 44.6 °F 41.4 °F 19.4 °F 37% 30.47 in 15.0 mi NNE 5.8 mph - N/A   Mostly Cloudy
5:00 PM 44.6 °F 40.7 °F 21.2 °F 39% 30.47 in 15.0 mi North 6.9 mph - N/A   Mostly Cloudy
6:00 PM 42.8 °F 37.5 °F 21.2 °F 42% 30.44 in 15.0 mi NNE 9.2 mph - N/A   Mostly Cloudy
7:00 PM 42.8 °F 40.1 °F 19.4 °F 39% 30.41 in 15.0 mi NNE 4.6 mph - N/A   Scattered Clouds
8:00 PM 41.0 °F 38.0 °F 19.4 °F 42% 30.38 in 15.0 mi South 4.6 mph - N/A   Partly Cloudy
9:00 PM 38 °F - 26 °F 51% 30.37 in 15 mi WSW 4.6 mph - -   Clear
9:00 PM 39.2 °F 35.9 °F 26.6 °F 61% 30.37 in 15.0 mi WSW 4.6 mph - N/A   Scattered Clouds
10:00 PM 37.4 °F 32.8 °F 24.8 °F 60% 30.36 in 15.0 mi SW 5.8 mph - N/A   Scattered Clouds
10:24 PM 35.6 °F 30.7 °F 24.8 °F 65% 30.35 in 15.0 mi SW 5.8 mph - N/A   Scattered Clouds
11:00 PM 33.8 °F 30.8 °F 24.8 °F 70% 30.35 in 15.0 mi WSW 3.5 mph - N/A   Scattered Clouds